Regional Weather Roundup
Issued by NWS

Home | Current Version | Previous Version | Text Only | Print | Product List | Glossary Off
Versions: 1 2 3 4 5 6 7 8 9 10 11 12 13 14 15 16 17 18 19 20 21 22 23 24 25 26 27 28 29 30 31 32 33 34 35 36 37 38 39 40 41 42 43 44 45 46 47 48 49 50

000
ASUS43 KMPX 241901
RWRMN
WEATHER ROUNDUP FOR MINNESOTA
NATIONAL WEATHER SERVICE TWIN CITIES/CHANHASSEN MN
200 PM CDT TUE MAY 24 2016


NOTE: "FAIR" INDICATES FEW OR NO CLOUDS BELOW 12,000 FEET WITH NO
SIGNIFICANT WEATHER AND/OR OBSTRUCTIONS TO VISIBILITY. N/A MEANS
CURRENT SKY AND/OR WEATHER CONDITIONS ARE NOT AVAILABLE.

MNZ060>063-068>070-242000-
   Twin Cities Metro

CITY           SKY/WX    TMP DP  RH WIND       PRES   REMARKS
TWIN CITIES    MOSUNNY   82  55  39 VRB6      29.89S
ST PAUL        SUNNY     81  57  43 SW8       29.89S
CRYSTAL        SUNNY     80  55  42 W3        29.88S
EDEN PRAIRIE   SUNNY     82  54  37 VRB3      29.88S
SOUTH ST PAUL  CLOUDY    81  56  41 SW3       29.89S
LAKE ELMO      FAIR      79  59  50 SW6       29.90S
$$
MNZ001>005-007-008-013>017-022>024-027-028-242000-
   Northwest Minnesota

CITY           SKY/WX    TMP DP  RH WIND       PRES   REMARKS
BEMIDJI        SUNNY     77  45  32 W5        29.88S
HALLOCK        MOSUNNY   73  54  49 NE7       29.87S
ROSEAU         SUNNY     73  52  46 SW7       29.87S
WARROAD        SUNNY     70  55  60 E8        29.88R
THIEF RVR FALL SUNNY     72  54  53 SW10      29.89S
CROOKSTON      SUNNY     73  54  49 NW6       29.88S
FOSSTON          N/A     73  55  53 SW10      29.89S
DETROIT LAKES  SUNNY     75  50  41 SW7       29.90S
MOORHEAD       SUNNY     82  45  26 SE6       29.85F
PARK RAPIDS    SUNNY     78  52  40 S6        29.88S
MAHNOMEN       FAIR      75  53  45 S6        29.87S
$$
MNZ006-009>011-018-025>026-242000-
   North Central Minnesota

CITY           SKY/WX    TMP DP  RH WIND       PRES   REMARKS
BAUDETTE       SUNNY     75  47  36 N8        29.86R
FLAG ISLAND    MOSUNNY   66  52  59 NW9       29.86R
INTL FALLS     SUNNY     77  48  35 VRB6      29.86S
WASKISH        SUNNY     73  50  43 W7        29.87S
BIG FORK       SUNNY     79  50  36 S7        29.87F
LONGVILLE      SUNNY     75  52  43 SE6       29.89S
CRANE LAKE     MOSUNNY   73  54  49 SW7       29.88S
ORR            MOSUNNY   73  46  38 CALM      29.85S
COOK           PTSUNNY   72  55  56 CALM      29.89S
WALKER         FAIR      73  52  48 E6        29.88F
$$
MNZ012-019>021-037-242000-
   Northeast Minnesota

CITY           SKY/WX    TMP DP  RH WIND       PRES   REMARKS
DULUTH         MOSUNNY   73  55  53 NE7       29.89F
ELY            SUNNY     73  52  46 S5        29.89S
HIBBING        MOSUNNY   75  48  38 W5        29.88S
EVELETH        MOSUNNY   77  50  38 E7        29.89F
DULUTH HARBOR  SUNNY     66  61  82 E6        29.89F
TWO HARBORS      N/A     75  59  57 CALM      29.88S
SILVER BAY     SUNNY     72  55  56 NE6       29.89R
GRAND MARAIS     N/A     50  48  93 NE8       29.94R
G MARAIS ARPRT MOSUNNY   64  55  72 E9        29.94R
$$
MNZ029>031-032-039>041-046>048-054>057-064-242000-
   West Central Minnesota

CITY           SKY/WX    TMP DP  RH WIND       PRES   REMARKS
FERGUS FALLS   SUNNY     79  54  41 SE5       29.82F
WHEATON        SUNNY     86  52  30 SW9       29.85S
MORRIS         SUNNY     84  55  37 S12       29.84F
ALEXANDRIA     SUNNY     80  53  39 VRB3      29.89S
ELBOW LAKE     FAIR      81  54  39 SW8       29.86S
WADENA         SUNNY     77  52  41 S3        29.88S
GLENWOOD       SUNNY     81  55  41 SE7       29.88F
APPLETON       SUNNY     82  55  39 SE3       29.84F
BENSON         SUNNY     82  54  36 SE5       29.85F
ORTONVILLE     SUNNY     82  54  36 SW5       29.85S
MADISON        MOSUNNY   82  54  36 CALM      29.85S
WILLMAR        FAIR      81  59  47 CALM      29.88S
$$
MNZ033>034-036-042>043-049>051-058-059-242000-
   Central Minnesota

CITY           SKY/WX    TMP DP  RH WIND       PRES   REMARKS
ST CLOUD       MOSUNNY   78  57  48 CALM      29.88S
SAUK CENTRE    CLOUDY    77  58  51 CALM      29.89S
PAYNESVILLE    SUNNY     77  60  54 SE7       29.89F
AITKIN         MOSUNNY   79  46  31 CALM      29.88S
PINE RIVER     SUNNY     75  55  50 E6        29.92F
BRAINERD       SUNNY     75  53  46 CALM      29.89F
STAPLES        MOSUNNY   79  46  31 S5        29.88S
LONG PRAIRIE   FAIR      77  59  53 NE3       29.89S
LITTLE FALLS   MOSUNNY   77  52  41 CALM      29.89S
LITCHFIELD     SUNNY     77  70  78 E6        29.90S
BUFFALO        SUNNY     76  62  61 CALM      29.90F
MAPLE LAKE     MOSUNNY   76  67  75 SE3       29.91R
HUTCHINSON     SUNNY     78  67  68 E5        29.90S
$$
MNZ037-044-045-052-053-242000-
   East Central Minnesota

CITY           SKY/WX    TMP DP  RH WIND       PRES   REMARKS
PRINCETON      MOSUNNY   82  57  42 W8        29.89R
MORA           MOSUNNY   75  59  57 N5        29.90S
CAMBRIDGE        N/A     81  61  50 W6        29.87S
RUSH CITY      PTSUNNY   77  63  61 NW6       29.89S
MOOSE LAKE     MOSUNNY   73  59  60 NE5       29.88S
HINCKLEY       MOCLDY    77  61  57 NW7       29.89S
CLOQUET        MOSUNNY   73  54  49 SW6       29.89F
MCGREGOR       MOSUNNY   77  54  44 NW3       29.89S
$$
MNZ071>073-080-081-089-090-097-098-242000-
   Southwest Minnesota

CITY           SKY/WX    TMP DP  RH WIND       PRES   REMARKS
MONTEVIDEO     MOSUNNY   86  61  42 SW6       29.86F
GRANITE FALLS  MOSUNNY   85  58  39 S8        29.87S
CANBY          SUNNY     84  61  45 SW7       29.87S
MARSHALL       SUNNY     82  52  35 VRB6      29.86S
REDWOOD FALLS  SUNNY     79  64  60 S8        29.87S
OLIVIA         SUNNY     77  64  65 SE8       29.87S
PIPESTONE      SUNNY     81  54  39 CALM      29.89S
WINDOM         SUNNY     79  63  57 CALM      29.89F
WORTHINGTON    SUNNY     75  65  70 S6        29.90F
JACKSON        MOSUNNY   77  61  57 CALM      29.91S
SLAYTON        SUNNY     80  54  40 S5        29.90S
$$
MNZ065>067-074>077-082>085-091>093-242000-
   South Central Minnesota

CITY           SKY/WX    TMP DP  RH WIND       PRES   REMARKS
MANKATO        SUNNY     81  61  50 S8        29.89F
NEW ULM        MOSUNNY   79  61  53 SE7       29.88S
ST JAMES       SUNNY     73  61  64 CALM      29.89F
FAIRMONT       CLOUDY    77  59  53 SE3       29.89F
GLENCOE        SUNNY     79  64  61 CALM      29.89S
FARIBAULT      SUNNY     81  59  47 W6        29.90F
OWATONNA       MOSUNNY   81  52  36 SW7       29.90F
WASECA         CLOUDY    79  52  38 W5        29.91S
ALBERT LEA     CLOUDY    75  59  57 CALM      29.91F
$$
MNZ078>079-086>088-094>096-242000-
   Southeast Minnesota

CITY           SKY/WX    TMP DP  RH WIND       PRES   REMARKS
ROCHESTER      MOSUNNY   76  63  64 SW5       29.93F
RED WING       CLOUDY    81  55  41 CALM      29.88S
STANTON        CLOUDY    80  58  45 SW6       29.88F
DODGE CENTER   CLOUDY    79  57  47 SW8       29.92F
WINONA         CLOUDY    79  59  50 W6        29.91F
AUSTIN         PTSUNNY   73  63  68 S3        29.92F
PRESTON        CLOUDY    75  59  58 S3        29.94S
$$
ABBREVIATIONS USED IN REMARKS
   TC - TEMPERATURES IN CELSIUS
  WCI - WIND CHILL INDEX
   HX - HEAT INDEX
  VSB - VISIBILITY
$$




USA.gov is the U.S. government's official web portal to all federal, state and local government web resources and services.